[[{"header":{"parameterUnit":"m.s-1","parameterCategory":1,"la1":30.2991,"la2":30.254,"lo1":-89.0895,"lo2":-89.0444,"dy":0.0017,"dx":0.0017,"nx":28,"ny":28,"refTime":"2023-10-19T03:00:00:Z","depth":0,"parameterNumber":2,"parameterNumberName":"U-component_of_WINDS"},"data":[0,0,0,0,0,0,0,0,0,0,0,0,0,0,0,0,0,0,0,0,0,0,0,0,0,0,0,0,0,0,0,0,0,0,0,0,0,0,0,0,0,0,0,0,0,0,0,0,0,0,0,0,0,0,0,0,0,0,5.2126,5.2126,0,5.2165,5.2165,5.2166,5.2121,5.2119,5.2117,5.2116,5.2156,5.2158,5.2161,0,0,0,0,0,0,0,0,0,0,0,0,0,5.2015,5.2018,5.2126,5.2126,5.2127,5.2165,5.2165,5.2166,5.2121,5.2119,5.2117,5.2115,5.2155,5.2158,5.2161,0,0,0,0,0,0,0,0,0,0,0,0,0,5.206,5.2018,5.2126,5.2109,5.2108,5.2165,5.2165,5.2166,5.2121,5.2119,5.2116,5.2114,5.2154,5.2158,5.2162,5.2237,0,0,5.2174,5.2176,0,0,0,0,0,0,0,0,5.2057,5.2064,5.2111,5.211,5.2109,5.2135,5.2141,5.219,5.2122,5.2116,5.2116,5.2113,5.2151,5.2155,5.2168,5.2239,5.2241,5.2174,5.2177,5.2178,5.2179,0,0,0,0,0,0,0,5.2054,5.2062,5.2141,5.2112,5.211,5.2101,5.2104,5.215,5.2147,5.2116,5.2113,5.2119,5.215,5.2164,5.2169,5.2241,5.2174,5.2178,5.218,5.2182,5.2383,5.2386,0,0,0,0,0,0,5.2053,5.206,5.214,5.2142,5.2076,5.2105,5.2108,5.2129,5.2147,5.2147,5.2121,5.2116,5.2159,5.2164,5.217,5.2264,5.2178,5.2182,5.2184,5.238,5.2384,5.2387,0,0,0,0,0,0,5.2051,5.206,5.2138,5.21,5.2109,5.2109,5.2133,5.2131,5.2146,5.215,5.2149,5.2136,5.2157,5.2164,5.2222,5.2265,5.2184,5.2187,5.2376,5.2381,5.2385,5.245,0,0,0,0,0,0,5.2048,5.206,5.2087,5.2101,5.2112,5.2189,5.2135,5.2134,5.2153,5.2147,5.2164,5.2164,5.2156,5.2217,5.2226,5.2269,5.219,5.2373,5.2378,5.2384,5.2444,5.2456,5.2467,0,0,0,0,0,5.2044,5.2103,5.2089,5.2099,5.2146,5.2191,5.2197,5.2186,5.2156,5.2185,5.2189,5.2164,5.2258,5.2223,5.2233,5.2278,5.237,5.2377,5.2383,5.2439,5.2454,5.2466,0,0,0,0,0,0,5.2092,5.2104,5.2089,5.2153,5.2172,5.2184,5.2219,5.2201,5.2228,5.2222,5.2208,5.2212,5.2275,5.2281,5.2242,5.2355,5.2309,5.2318,5.2348,5.2362,5.2373,5.2372,5.2194,0,0,0,0,0,5.2111,5.2146,5.2154,5.2211,5.2221,5.2219,5.2238,5.2229,5.2247,5.2255,5.2262,5.2282,5.2316,5.2339,5.237,5.2445,5.245,5.2481,5.2492,5.2501,5.251,5.2556,5.2571,5.2409,5.2409,5.2408,0,0,5.2148,5.2159,5.2182,5.2221,5.2234,5.2274,5.2226,5.2267,5.2297,5.2261,5.2318,5.2324,5.2345,5.2413,5.2443,5.2421,5.2556,5.251,5.2517,5.2521,5.2564,5.2579,5.2593,5.2413,5.2412,5.2412,0,0,5.2239,5.2248,5.2299,5.2315,5.2336,5.2335,5.2348,5.2363,5.2367,5.2424,5.2399,5.2435,5.2493,5.2511,5.2527,5.263,5.261,5.2641,5.27,5.2745,5.2758,5.2769,5.281,5.2825,5.2649,5.2649,5.2649,0,5.2283,5.234,5.2328,5.2374,5.2394,5.2364,5.2418,5.2433,5.2463,5.2479,5.2453,5.253,5.2541,5.2616,5.2642,5.2654,5.2671,5.264,5.2757,5.2768,5.2778,5.2818,5.2833,5.2653,5.2653,5.2652,5.2652,0,5.2397,5.2437,5.2476,5.2509,5.2533,5.2582,5.2579,5.2605,5.2595,5.2597,5.2658,5.2672,5.2709,5.2725,5.2713,5.28,5.2786,5.2758,5.2713,5.2798,5.2835,5.285,5.2659,5.2657,5.2656,5.2655,0,0,5.2517,5.2546,5.256,5.2578,5.2601,5.2633,5.2683,5.272,5.2745,5.2768,5.2812,5.2865,5.2841,5.286,5.2851,5.289,5.2978,5.2859,5.2859,5.2884,5.308,5.3103,5.312,5.2964,5.2966,5.2969,5.308,0,5.2611,5.2698,5.269,5.2773,5.2814,5.2788,5.2832,5.2853,5.2858,5.2894,5.2899,5.2939,5.2902,5.2915,5.2952,5.2959,5.3017,5.295,5.3008,5.301,5.3007,5.3139,5.3162,5.3266,5.3093,5.3096,5.3097,0,5.2732,5.2762,5.285,5.2873,5.289,5.293,5.2966,5.3,5.3024,5.3025,5.305,5.3036,5.3089,5.3041,5.3117,5.3072,5.3095,5.3103,5.3107,5.3114,5.3061,5.3153,5.3298,5.3315,5.3119,5.3117,5.3116,0,5.2817,5.2879,5.2941,5.2956,5.2983,5.3013,5.3026,5.3048,5.3072,5.3104,5.3121,5.3158,5.3179,5.321,5.3208,5.3172,5.3287,5.3237,5.3292,5.3292,5.3319,5.3318,5.3473,5.3328,5.3328,5.3327,5.3327,0,5.2925,5.2981,5.2981,5.3019,5.3083,5.3074,5.3138,5.3147,5.3168,5.321,5.3189,5.3229,5.3222,5.3263,5.3262,5.3328,5.3336,5.3341,5.3341,5.3345,5.3345,5.3362,5.3356,5.3331,5.333,5.333,5.3329,0,5.3031,5.3032,5.3099,5.3121,5.3128,5.3175,5.3194,5.3232,5.3236,5.329,5.3302,5.3309,5.3357,5.3358,5.3411,5.341,5.3493,5.3482,5.3485,5.3484,5.3541,5.3537,5.3715,5.374,5.3575,5.3577,5.3578,0,5.3101,5.3144,5.3172,5.3199,5.3214,5.3257,5.3284,5.3278,5.3307,5.3342,5.3377,5.3422,5.3459,5.3537,5.3548,5.359,5.3583,5.3643,5.3589,5.3594,5.3589,5.3588,5.3595,5.3654,5.3656,5.3657,5.3658,0,5.3227,5.3227,5.3266,5.3307,5.3339,5.3371,5.3399,5.3423,5.3422,5.3455,5.3505,5.3533,5.3591,5.3638,5.368,5.3695,5.3679,5.3675,5.3691,5.3697,5.3699,5.3704,5.3518,5.3671,5.367,5.3669,5.3668,5.3668,5.332,5.336,5.3387,5.3432,5.3454,5.3483,5.3522,5.3533,5.3574,5.3621,5.3615,5.3672,5.37,5.3755,5.3774,5.382,5.3799,5.382,5.3827,5.3833,5.3842,5.369,5.3826,5.3826,5.3826,5.3825,5.3825,0,5.345,5.3467,5.3509,5.3552,5.3589,5.357,5.3603,5.3635,5.3685,5.3713,5.3751,5.3811,5.3858,5.3874,5.3921,5.3955,5.3949,5.3967,5.3966,5.3971,5.3855,5.3839,5.3972,5.3972,5.3972,5.3972,5.3972,5.3972,5.3521,5.3589,5.3593,5.3673,5.369,5.3746,5.3767,5.3795,5.3818,5.3886,5.3926,5.3936,5.3961,5.401,5.4054,5.4058,5.4078,5.4101,5.4102,5.3993,5.3979,5.3965,5.395,5.4104,5.4105,5.4215,5.4216,5.4217]},{"header":{"parameterUnit":"m.s-1","parameterCategory":1,"la1":30.2991,"la2":30.254,"lo1":-89.0895,"lo2":-89.0444,"dy":0.0017,"dx":0.0017,"nx":28,"ny":28,"refTime":"2023-10-19T03:00:00:Z","depth":0,"parameterNumber":3,"parameterNumberName":"V-component_of_WINDS"},"data":[0,0,0,0,0,0,0,0,0,0,0,0,0,0,0,0,0,0,0,0,0,0,0,0,0,0,0,0,0,0,0,0,0,0,0,0,0,0,0,0,0,0,0,0,0,0,0,0,0,0,0,0,0,0,0,0,0,0,1.2655,1.2657,0,1.2849,1.2851,1.2853,1.2877,1.2875,1.2873,1.2872,1.3073,1.308,1.3087,0,0,0,0,0,0,0,0,0,0,0,0,0,1.2306,1.2313,1.2655,1.2657,1.266,1.2848,1.2851,1.2854,1.2878,1.2875,1.2873,1.2871,1.3071,1.3079,1.3088,0,0,0,0,0,0,0,0,0,0,0,0,0,1.2475,1.2315,1.2655,1.2694,1.27,1.2848,1.2851,1.2854,1.2878,1.2875,1.2872,1.287,1.3068,1.3078,1.3089,1.3211,0,0,1.3121,1.3126,0,0,0,0,0,0,0,0,1.2465,1.2488,1.2686,1.2692,1.2698,1.2836,1.2802,1.2974,1.2879,1.2811,1.2872,1.2868,1.2997,1.3013,1.3056,1.3221,1.3229,1.3122,1.3129,1.3133,1.3136,0,0,0,0,0,0,0,1.2454,1.2479,1.2732,1.2689,1.2696,1.2703,1.2724,1.2835,1.2917,1.2816,1.2818,1.2841,1.2999,1.3045,1.306,1.3232,1.3122,1.3131,1.3138,1.3142,1.3504,1.3507,0,0,0,0,0,0,1.2434,1.2469,1.2726,1.2738,1.2572,1.2711,1.2735,1.2795,1.2916,1.2932,1.2843,1.2841,1.3028,1.3048,1.3068,1.3217,1.3133,1.3143,1.3149,1.3501,1.3505,1.3508,0,0,0,0,0,0,1.2427,1.2457,1.2718,1.2604,1.2638,1.272,1.2788,1.28,1.2846,1.2936,1.2951,1.2875,1.3027,1.3053,1.3174,1.3224,1.3148,1.3158,1.3497,1.3502,1.3507,1.3517,0,0,0,0,0,0,1.2417,1.2454,1.2502,1.2605,1.2644,1.2821,1.2791,1.2806,1.2864,1.2863,1.297,1.2985,1.3027,1.3158,1.3185,1.3237,1.3166,1.3493,1.3499,1.3505,1.3513,1.3521,1.3529,0,0,0,0,0,1.2404,1.2498,1.2504,1.2535,1.2705,1.2824,1.2846,1.2892,1.2868,1.2916,1.2973,1.2981,1.3214,1.3171,1.3201,1.3257,1.349,1.3498,1.3505,1.3509,1.352,1.3529,0,0,0,0,0,0,1.24,1.2513,1.252,1.265,1.2727,1.2828,1.289,1.2902,1.2989,1.2985,1.3038,1.3062,1.318,1.3232,1.3181,1.338,1.335,1.3364,1.3343,1.3354,1.3362,1.3347,1.3175,0,0,0,0,0,1.2414,1.2501,1.2595,1.2701,1.2739,1.2808,1.2861,1.2889,1.2972,1.3005,1.3071,1.3151,1.3242,1.3301,1.339,1.352,1.3542,1.3573,1.3582,1.3588,1.3599,1.3668,1.3682,1.3532,1.3532,1.3532,0,0,1.2445,1.2517,1.2569,1.2702,1.2765,1.2853,1.2835,1.293,1.2996,1.302,1.3137,1.3189,1.3282,1.3407,1.3466,1.3453,1.3645,1.3597,1.3602,1.3609,1.3677,1.3691,1.3704,1.3537,1.3536,1.3535,0,0,1.2545,1.2609,1.2702,1.2765,1.2859,1.2904,1.2926,1.3025,1.3059,1.3178,1.3197,1.3276,1.3432,1.3497,1.355,1.367,1.368,1.3698,1.3741,1.3808,1.382,1.3831,1.3872,1.3886,1.3709,1.3709,1.3709,0,1.2571,1.2704,1.2749,1.2843,1.29,1.2923,1.3018,1.3077,1.3196,1.3235,1.3218,1.3412,1.3477,1.3616,1.3645,1.3688,1.3714,1.3686,1.3815,1.3826,1.3837,1.3876,1.3891,1.371,1.371,1.371,1.371,0,1.273,1.2822,1.2887,1.2999,1.3063,1.3157,1.3216,1.3276,1.3297,1.3344,1.3463,1.3541,1.3644,1.3679,1.3703,1.3821,1.381,1.3804,1.3774,1.3851,1.3889,1.3905,1.3712,1.3712,1.3711,1.3711,0,0,1.2834,1.2968,1.2991,1.304,1.3145,1.3217,1.3311,1.3411,1.346,1.3541,1.362,1.375,1.3744,1.3804,1.3835,1.3894,1.3981,1.388,1.3883,1.3894,1.4113,1.4116,1.4133,1.3988,1.3991,1.3993,1.4104,0,1.2945,1.3112,1.3154,1.3296,1.338,1.3402,1.3484,1.3557,1.3602,1.368,1.373,1.382,1.3807,1.3842,1.3902,1.3957,1.4025,1.395,1.4061,1.4064,1.4035,1.4153,1.4157,1.4258,1.412,1.4122,1.4124,0,1.3096,1.3177,1.3327,1.3418,1.3455,1.3528,1.3621,1.3696,1.3778,1.3807,1.3872,1.3896,1.3993,1.3959,1.4093,1.4041,1.4089,1.4122,1.4127,1.4138,1.4098,1.4165,1.4292,1.4306,1.4149,1.4147,1.4145,0,1.3153,1.3301,1.3409,1.3452,1.3561,1.3611,1.3659,1.3738,1.3795,1.3876,1.3913,1.4005,1.4055,1.4126,1.4173,1.4144,1.4303,1.4273,1.4328,1.4327,1.436,1.4357,1.4494,1.4393,1.4393,1.4393,1.4392,0,1.3271,1.3362,1.3436,1.3502,1.3604,1.3651,1.375,1.3799,1.3869,1.3944,1.397,1.404,1.4099,1.4178,1.4216,1.4319,1.4343,1.4368,1.4376,1.4364,1.4361,1.4396,1.4389,1.4397,1.4396,1.4395,1.4394,0,1.3353,1.3406,1.3525,1.3618,1.3643,1.3713,1.3793,1.3858,1.3903,1.3998,1.4023,1.4094,1.4187,1.4241,1.436,1.4385,1.4499,1.4506,1.4471,1.4474,1.4525,1.4519,1.4688,1.4711,1.4597,1.4598,1.4599,0,1.3423,1.3493,1.3592,1.3644,1.3692,1.3776,1.3832,1.3881,1.3939,1.4036,1.4089,1.4183,1.4261,1.4408,1.447,1.456,1.4568,1.4621,1.4582,1.4566,1.4566,1.456,1.4566,1.4627,1.4628,1.4629,1.463,0,1.3542,1.3565,1.3645,1.3734,1.38,1.3873,1.3945,1.3986,1.4047,1.4111,1.4205,1.4265,1.4384,1.4477,1.4571,1.4621,1.4635,1.4641,1.4658,1.4646,1.4622,1.4633,1.4487,1.4637,1.4636,1.4636,1.4635,1.4635,1.3619,1.3681,1.3759,1.3847,1.3906,1.3973,1.4037,1.4089,1.4168,1.4268,1.4292,1.4391,1.4469,1.4597,1.4648,1.4725,1.4717,1.4742,1.4748,1.4753,1.4753,1.461,1.4743,1.4743,1.4743,1.4743,1.4743,0,1.3737,1.3788,1.3869,1.3968,1.4036,1.4043,1.4122,1.4179,1.4265,1.4337,1.4412,1.4519,1.4608,1.4676,1.4767,1.4816,1.4824,1.4838,1.4834,1.4845,1.4757,1.4732,1.4829,1.4829,1.4829,1.4829,1.4829,1.4829,1.3807,1.391,1.3942,1.4074,1.4125,1.4221,1.4265,1.4326,1.4383,1.4501,1.4575,1.4618,1.4687,1.4783,1.4865,1.4882,1.4913,1.4926,1.4944,1.4861,1.4851,1.4842,1.4819,1.4933,1.4933,1.5025,1.5025,1.5026]}]]